User: anonymous   Login
Location: ??
(35.4824°N, 139.4679°E)
Time: 16:16:19
(UTC+00:00)
Language:

DELTA 2 R/B (1) - Orbit

View from above orbital plane
View from above orbital plane
View from above satellite
View from above satellite

Ground track
Ground track

The orbit data is extracted from the following two-line orbital elements,

1 27665U 03005C   21019.03239898  .00000043  00000-0  50738-4 0  9993
2 27665  39.5755 270.0611 0008893 166.6022 321.9971 14.28542790938565
Epoch (UTC): 19 January 2021 00:46:39
Eccentricity: 0.0008893
inclination: 39.5755°
perigee height: 790 km
apogee height: 803 km
right ascension of ascending node: 270.0611°
argument of perigee: 166.6022°
revolutions per day: 14.28542790
mean anomaly at epoch: 321.9971°
orbit number at epoch: 93856

The dashed part of the orbit path shows where the satellite is in the earth's shadow,  

DLR